Tracking 25620 objects as of 18-May-2022
HD Live streaming from Space Station
objects crossing your sky now

SL-8 DEB *

Track SL-8 DEB * now!
10-day predictions


NORAD ID: 18510
Int'l Code: 1982-051F
Perigee: 717.6 km
Apogee: 736.3 km
Inclination: 74.0 °
Period: 99.2 minutes
Semi major axis: 7097 km
RCS: 0.0076 m2 (small)
Launch date: June 1, 1982
Source: Commonwealth of Independent States (former USSR) (CIS)
Launch site: PLESETSK MISSILE AND SPACE COMPLEX (PKMTR)

Note: This is SATELLITE DEBRIS
aabbcc
Your satellite tracking list
Your tracking list is empty




NASA's NSSDC Master Catalog

Two Line Element Set (TLE):
1 18510U 82051F   22137.98064265  .00001654  00000-0  41781-3 0  9996
2 18510  73.9916 322.4757 0013173  37.5740 117.0322 14.51793157872470
Source of the keplerian elements: AFSPC